Regional Weather Roundup
Issued by NWS Midland/Odessa, TX

Skip options and go directly to product.
Home | Oldest Version | Previous Version | Current Version | All | Text Only | Save Text | Print | Product List | Glossary On

Skip product version selection by date and time.   
777
ASUS44 KMAF 011501
RWRMAF
MIDLAND AREA WEATHER ROUNDUP
NATIONAL WEATHER SERVICE MIDLAND TX
900 AM CST SUN MAR 01 2015

...IN SOUTHWEST TEXAS AND SOUTHEAST NEW MEXICO...

CITY           SKY/WX    TMP DP  RH WIND       PRES   REMARKS
ALPINE         MOSUNNY   32  30  94 CALM      30.21R
ANDREWS        FOG       30  30 100 E5        30.22R VSB 3/4 WCI  25
ARTESIA        FOG       30  30 100 S5        30.20R VSB<1/4 WCI  25
BIG SPRING     CLOUDY    32  30  93 NE6       30.27R WCI  26
CARLSBAD       CLOUDY    32  30  92 SE7       30.19R FOG     WCI  26
DRYDEN           N/A     42  40  92 CALM      30.20R
FORT STOCKTON  CLOUDY    33  33 100 NW6       30.22R FOG     WCI  28
GUAD PASS      NOT AVBL
HOBBS          FOG       30  30 100 CALM      30.20R VSB 1/4
MARFA          MOSUNNY   48  36  61 CALM      30.18R
MIDLAND AIRPK  FOG       31  31 100 E5        30.24R VSB 1/2 WCI  27
MIDLAND INTL   FOG       31  30  96 E8        30.23R VSB 1/2 WCI  23
ODESSA         FOG       31  29  92 E8        30.22R VSB 1/2 WCI  23
PECOS          CLOUDY    36  34  94 CALM      30.23R FOG
PRESIDIO       FAIR      40  34  79 CALM      30.15R
SEMINOLE       CLOUDY    30  30 100 CALM      30.23R
SNYDER         CLOUDY   N/A N/A N/A NE6       30.27S HAZE
WINK           CLOUDY    36  33  89 E5        30.21R FOG     WCI  32
$$
...OTHER STATIONS IN TEXAS...

CITY           SKY/WX    TMP DP  RH WIND       PRES   REMARKS
ABILENE        CLOUDY    30  28  92 N7        30.31R FOG     WCI  23
AMARILLO       FOG       25  24  96 SE9       30.22R VSB 1/4 WCI  15
AUSTIN         DRIZZLE   37  37 100 N10       30.29R FOG     WCI  30
BROWNSVILLE    CLOUDY    50  49  96 NW7       30.20R FOG
CORPUS CHRISTI FOG       48  47  96 N9        30.19R VSB 1/2
DALLAS FTW     CLOUDY    33  32  96 N9        30.35R FOG     WCI  25
DEL RIO        CLOUDY    45  43  93 CALM      30.23R FOG
EL PASO        PTSUNNY   47  30  51 S3        30.10R
HOUSTON INT    LGT RAIN  53  52  96 NE6       30.22R VSB 1/2
LUBBOCK        CLOUDY    27  26  96 CALM      30.23R FOG
SAN ANGELO     CLOUDY    32  31  96 NE8       30.27S FOG     WCI  25
SAN ANTONIO    DRZL/FOG  42  40  92 N9        30.24R VSB 3/4 WCI  37
WACO           MIX PCPN  34  33  96 N13       30.33R FOG     WCI  25
WICHITA FALLS  NOT AVBL
$$
...OTHER LOCATIONS IN NEW MEXICO...

CITY           SKY/WX    TMP DP  RH WIND       PRES   REMARKS
ALAMAGORDO     SUNNY     54  36  50 S6        30.12R
ALBUQUERQUE    PTSUNNY   35  32  88 N6        30.11R WCI  30
CANNON AFB     NOT AVBL
CLOVIS         CLOUDY    27  27 100 W7        30.16S VSB 1/2 WCI  19
HOLLOMAN AFB   SUNNY     48  34  58 S7        30.10R
ROSWELL        CLOUDY    30  29  96 SE3       30.19R FOG
RUIDOSO        SUNNY     46  32  57 N5        30.14R
SANTA FE       LGT RAIN  34  32  92 N9        30.10R FOG     WCI  27
TRUTH OR CONSE SUNNY     52  37  56 S13       30.09R
TUCUMCARI      CLOUDY    28  25  88 NW5       30.16R WCI  23
$$

USA.gov is the U.S. government's official web portal to all federal, state and local government web resources and services.